Regional Weather Roundup
Issued by NWS

Home | Current Version | Previous Version | Graphics & Text | Print | Product List | Glossary On
Versions: 1 2 3 4 5 6 7 8 9 10 11 12 13 14 15 16 17 18 19 20 21 22 23 24 25 26 27 28 29 30 31 32 33 34 35 36 37 38 39 40 41 42 43 44 45 46 47 48 49 50
000
ASUS43 KTOP 242208
RWRKS

WEATHER ROUNDUP FOR KANSAS
NATIONAL WEATHER SERVICE GOODLAND KS
500 PM CDT THU JUL 24 2014

NOTE:  "FAIR" INDICATES FEW OR NO CLOUDS BELOW 12,000 FEET WITH NO
SIGNIFICANT WEATHER AND/OR OBSTRUCTIONS TO VISIBILITY.

KSZ001>006-013>018-027>032-041>047-242300-
NORTHWEST KANSAS

CITY           SKY/WX    TMP DP  RH WIND       PRES   REMARKS
GOODLAND       SUNNY    100  45  15 S18G25    29.92F HX  96
HAYS           SUNNY     79  70  73 S23       29.91F
HILL CITY      SUNNY    100  66  32 S21G31    29.88F HX 104
RUSSELL        SUNNY     93  70  46 SE24G32   29.92F HX  99
$$

KSZ061>065-074>080-084>089-242300-
SOUTHWEST KANSAS

CITY           SKY/WX    TMP DP  RH WIND       PRES   REMARKS
DODGE CITY     SUNNY     95  68  41 S24       29.96F HX  99
ELKHART          N/A     96  56  26 S18         N/A
GARDEN CITY    SUNNY     97  56  25 S20G30    29.96F HX  95
GREAT BEND     SUNNY     93  72  49 S23       29.93F HX 100
LIBERAL        SUNNY    102  54  19 SW17G24   29.99F HX 100
PRATT          SUNNY     91  68  46 S18G25    29.99F HX  95
$$

KSZ066>073-081>083-090>101-242300-
SOUTHEAST KANSAS

CITY           SKY/WX    TMP DP  RH WIND       PRES   REMARKS
CHANUTE        SUNNY     86  66  51 SE12      30.02F
COFFEYVILLE    SUNNY     89  67  47 S6        30.01F
HUTCHINSON     SUNNY     94  67  41 SE20G25   29.97F HX  97
MEDICINE LODGE   N/A     94  72  48 S12G21    29.96F HX 102
NEWTON         SUNNY     90  64  43 S16G23    30.04F
PARSONS        SUNNY     87  67  51 VRB7      30.03F
WICHITA INTL   MOSUNNY   90  69  50 SE16      29.99F
WICHITA JABRA  SUNNY     90  68  48 S15       30.00F
WICHITA MCCONL SUNNY     90  68  48 SE14      30.00F
WINFIELD       SUNNY     89  70  53 S14       30.01F
$$

KSZ007>012-019>026-033>040-048>060-102>105-242300-
NORTHEAST KANSAS

CITY           SKY/WX    TMP DP  RH WIND       PRES   REMARKS
CONCORDIA      SUNNY     89  68  49 S20G32    29.93F
EMPORIA        SUNNY     86  64  47 S15       29.99F
LAWRENCE       SUNNY     87  58  37 SE16      30.00F
MANHATTAN      SUNNY     90  61  37 S17G25    29.97F
MARYSVILLE     SUNNY     88  64  45 SE14G21   29.96F
OLATHE IND     SUNNY     84  58  40 SE13      30.03F
OLATHE EXE     SUNNY     82  60  47 S10       30.02F
SALINA         SUNNY     95  66  38 SE18G29   29.94F HX  98
TOPEKA BILLARD SUNNY     88  60  38 SE13G22   29.99F
TOPEKA FORBES  SUNNY     88  60  38 S15       29.99F
$$



USA.gov is the U.S. government's official web portal to all federal, state and local government web resources and services.